www.pogodaiklimat.ru

Погода и климат >> Архив погоды >> Испания >> Madrid


АРХИВ ПОГОДЫ в Madrid

Время (UTC), дата Ветер
(напр.,м/с)
 
Видим.   Явления Облачность Т
(С)
Тd
(С)
f
(%)
Тe
(С)
Тes
(С)
Комфортность P
(гПа)
Po
(гПа)
Тmin
(С)
Tmax
(С)
R
(мм)
R24
(мм)
S
(см)
23 16.05 ЮВ 3 30 км 8/0
[Ac As]
+18.4 +5.7 43 +19 +19 тепло 1013.4 947.3
22 16.05 В 2 30 км 8/0
[Ac As Ci fib]
+19.0 +7.2 46 +20 +20 тепло 1012.9 947.0
00 17.05 В 1 30 км 5/0
[Ac As]
+16.2 +4.8 47 +17 +17 тепло 1014.5 947.8
01 17.05 В 2 30 км 5/0
[Ac As]
+15.8 +3.3 43 +16 +16 тепло 1014.8 948.0
02 17.05 В 2 30 км 6/0
[Ac As]
+15.5 +3.4 44 +16 +16 тепло 1015.0 948.1
03 17.05 В 1 30 км 6/0
[Ac As]
+14.4 +3.9 49 +15 +15 тепло 1015.4 948.2
05 17.05 ЮВ 2 30 км 6/0 2000 м
[Ac As]
+14.0 +4.3 52 +14 +14 тепло 1015.9 948.6
04 17.05 ЮВ 3 30 км 6/0
[Ac As Cs]
+14.2 +4.3 51 +14 +14 тепло 1015.6 948.4
06 17.05 ЮВ 2 30 км 6/1 2000 м
[Cu hum Ac und Ci fib]
+14.0 +5.8 58 +14 +14 тепло 1015.9 948.6 +13.8
07 17.05 штиль 0 30 км 8/1 1500 м
[Cu Sc Ac und]
+13.8 +7.9 68 +14 +15 по сезону 1016.1 948.8
08 17.05 С 1 30 км 6/1 1500 м
[Cu Sc Ac und]
+15.8 +6.7 55 +17 +21 тепло 1015.7 948.9
09 17.05 Ю 1 30 км 6/1
[Cu hum Ac As]
+17.8 +6.3 47 +19 +26 тепло 1015.2 948.9
11 17.05 З 2 30 км 1/0
[Ac trans]
+20.7 +5.3 36 +22 +39 комфорт 1013.9 948.3
10 17.05 Ю 2 30 км 3/1 2000 м
[Cu Sc Ac As]
+19.6 +6.6 43 +21 +32 комфорт 1014.5 948.6
12 17.05 С 2 30 км 1/1 1500 м
[Cu hum Ci fib]
+22.1 +5.6 34 +23 +42 комфорт 1013.0 947.7
13 17.05 З 2 30 км 1/1 2000 м
[Cu hum Ci fib]
+23.2 +5.9 33 +24 +41 комфорт 1012.0 947.0
14 17.05 ЮЗ 2 30 км 3/3 2000 м
[Cu hum Ci fib]
+23.9 +6.3 32 +24 +35 комфорт 1011.1 946.3
15 17.05 ЮЗ 2 30 км 3/3 2000 м
[Cu hum Ci fib]
+24.3 +5.9 31 +24 +33 комфорт 1010.3 945.7
17 17.05 Ю 2 29 км 5/3 2000 м
[Sc diur, vesp Ac trans]
+24.7 +5.6 29 +24 +27 комфорт 1009.5 945.0
16 17.05 ЮЗ 3 30 км 3/3 2000 м
[Cu hum]
+23.7 +5.3 30 +24 +28 комфорт 1010.0 945.2
18 17.05 ЮЗ 1 30 км осадки на расстоянии 8/6 2000 м
[Cu med, cong Ac trans Ci fib]
+23.4 +4.9 30 +23 +24 комфорт 1009.6 944.8 +25.2
19 17.05 СВ 4 30 км осадки на расстоянии 9/6 2000 м
[Cu med, cong Ac As Ci fib]
+20.6 +6.8 41 +22 +22 комфорт 1011.1 945.6
20 17.05 С 2 16 км 9/9
[Cu Sc]
+18.6 +10.2 58 +20 +20 тепло 1012.3 946.4
21 17.05 СВ 3 30 км ливневой дождь 9/4 1500 м
[Cu med, cong Ac lent Ci fib]
+16.1 +11.1 72 +16 +16 по сезону 1014.7 948.1 0.1
23 17.05 С 3 30 км 4/0
[Ac lent]
+15.5 +10.8 74 +15 +15 тепло 1015.7 948.9
22 17.05 С 3 30 км 4/3 1500 м
[Cu med, cong Ac lent]
+15.5 +10.3 71 +15 +15 тепло 1015.5 948.7
00 18.05 СВ 3 30 км 6/0
[Ac lent Ci fib]
+14.6 +10.6 77 +14 +14 по сезону 1015.6 948.6 0.0
01 18.05 СВ 2 30 км 4/0
[Ac lent Ci fib]
+14.5 +10.1 75 +14 +14 тепло 1015.2 948.2
02 18.05 СЗ 3 30 км 4/0
[Ac lent Ci fib]
+14.0 +10.2 78 +13 +13 тепло 1015.1 948.0
03 18.05 С 4 30 км 3/0
[Ac lent Ci fib]
+13.7 +10.1 79 +12 +12 по сезону 1015.1 947.9
05 18.05 СЗ 1 30 км 9/9
[Sc]
+13.2 +9.8 80 +14 +14 тепло 1015.3 948.0
04 18.05 С 3 30 км 9/0
[Ac lent Ci fib]
+13.3 +10.3 82 +12 +12 тепло 1015.1 947.8
06 18.05 С 3 30 км 9/6
[Cu Sc Ac und Ci fib]
+14.0 +10.4 79 +13 +13 тепло 1015.5 948.3 +13.1
07 18.05 С 3 30 км 8/1
[Cu Sc Ac und Ci sp]
+15.9 +11.0 73 +16 +17 по сезону 1015.4 948.7
08 18.05 СВ 1 30 км 4/0
[Ac cast Ci fib]
+17.4 +10.9 66 +18 +24 тепло 1015.6 949.2
09 18.05 В 2 30 км 5/1
[Cu hum Ac cast Ci fib]
+19.4 +10.3 56 +21 +29 комфорт 1015.2 949.3
11 18.05 Ю 2 30 км 5/4 1500 м
[Cb cap Ci ing]
+21.7 +9.0 44 +23 +33 комфорт 1014.2 948.8
10 18.05 ЮВ 4 30 км 4/3 600 м
[Cu med, cong As trans Ci fib]
+20.5 +8.3 45 +22 +29 комфорт 1014.9 949.2
12 18.05 СВ 2 30 км 9/8 2000 м
[Cu Sc Ci fib]
+19.0 +12.2 65 +20 +24 по сезону 1014.3 948.4 0.3
13 18.05 С 2 30 км 9/9 2000 м
[St]
+22.2 +8.8 42 +24 +25 комфорт 1012.8 947.6
14 18.05 ЮЗ 3 30 км осадки на расстоянии {ливн. осадки} 9/4 900 м
[Cb cap Ac cuf Ci ing]
+21.0 +7.8 43 +23 +27 комфорт 1012.8 947.3
15 18.05 Ю 8 20 км слабый ливневой дождь 9/4 540 м
[Cb cap Ac cuf Ci ing]
+16.4 +12.0 75 +15 +16 холодно 1014.4 947.9 0.5
17 18.05 С 2 30 км 9/4 600 м
[Cu med, cong Ac cuf Ci ing]
+18.6 +9.5 55 +20 +22 прохладно 1014.3 948.3
16 18.05 ЮЗ 4 30 км осадки на расстоянии {ливн. осадки} 9/4 600 м
[Cu med, cong Ac cuf Ci ing]
+17.4 +10.8 65 +17 +19 холодно 1013.9 947.7
18 18.05 С 3 30 км осадки на расстоянии {ливн. осадки} 9/4 900 м
[Cb cap Ac cuf Ci ing]
+18.4 +9.8 57 +19 +19 по сезону 1014.4 948.3 +22.3
19 18.05 С 3 30 км осадки на расстоянии {ливн. осадки} 9/3 600 м
[Cu med, cong Ac cuf Ci ing]
+17.7 +10.2 61 +18 +18 по сезону 1015.0 948.7
20 18.05 СВ 2 30 км 9/3 2000 м
[Cu med, cong Ac cuf Ci ing]
+17.0 +10.6 66 +17 +17 по сезону 1015.2 948.8
21 18.05 В 2 30 км 4/3 2000 м
[Sc diur, vesp Ac cuf Ci ing]
+15.2 +11.1 77 +15 +15 по сезону 1016.3 949.4
23 18.05 штиль 0 30 км 5/0
[Ac cuf Ci sp]
+13.6 +10.2 80 +13 +13 по сезону 1017.1 949.7
22 18.05 С 1 30 км 8/0
[Ac cuf Ci ing]
+13.9 +10.6 80 +14 +14 по сезону 1016.9 949.6
00 19.05 С 2 30 км 5/0
[Ac cuf Ci sp]
+12.7 +10.8 88 +12 +12 по сезону 1017.3 949.7
01 19.05 СЗ 2 30 км 4/0
[Ac cuf Ci sp]
+12.5 +10.2 86 +12 +12 по сезону 1017.1 949.6
02 19.05 С 2 30 км 6/0
[Ac cuf Ci sp]
+12.1 +10.3 89 +11 +11 по сезону 1017.1 949.5
03 19.05 С 2 30 км 6/0
[Ac cuf Ci sp]
+11.6 +9.8 89 +11 +11 по сезону 1017.3 949.5
05 19.05 С 1 30 км 8/4 1500 м
[Sc Ac lent Ci sp]
+10.9 +9.5 91 +10 +10 по сезону 1017.9 949.9
04 19.05 С 2 30 км 5/0
[Ac cuf Ci sp]
+10.9 +9.3 90 +10 +10 по сезону 1017.6 949.6
06 19.05 С 2 19 км 9/3 1500 м
[Sc Ac und Ci sp]
+11.6 +10.2 91 +11 +11 по сезону 1018.1 950.3 +10.6
07 19.05 С 1 30 км 9/3 1500 м
[Sc Ac und Ci sp]
+14.0 +11.2 83 +14 +16 по сезону 1017.6 950.3
08 19.05 В 1 30 км 9/0
[Ac und Ci sp]
+15.7 +11.4 76 +16 +20 по сезону 1017.3 950.4
09 19.05 Ю 2 30 км 9/5 2000 м
[Sc Ac und Ci sp]
+17.9 +11.3 65 +18 +22 тепло 1016.8 950.5
11 19.05 Ю 2 28 км 3/3 1500 м
[Cu med, cong Ac lent Ci sp]
+21.5 +10.6 50 +23 +36 комфорт 1015.0 949.5
10 19.05 З 2 25 км 5/3 2000 м
[Cu hum Ac lent Ci sp]
+19.8 +10.6 55 +22 +32 комфорт 1015.9 950.1
12 19.05 Ю 1 30 км 3/3 2000 м
[Cb cap Ac lent Ci sp]
+22.5 +8.8 42 +24 +40 комфорт 1014.2 948.9
13 19.05 С 3 30 км 5/5 2000 м
[Cb cap Ac lent Ci sp]
+23.9 +7.5 35 +24 +33 комфорт 1013.1 948.2
14 19.05 С 8 30 км 8/6 1320 м
[Cu med, cong Ac lent Ci ing]
+22.5 +8.7 41 +24 +25 комфорт 1013.1 947.9
15 19.05 С 5 30 км 9/6 1350 м
[Cb cap Ac cuf Ci ing]
+24.7 +8.0 34 +25 +27 комфорт 1012.3 947.6
17 19.05 ЮВ 4 30 км 9/5 1500 м
[Sc diur, vesp Ac cuf Ci ing]
+22.2 +10.0 46 +24 +25 комфорт 1012.6 947.4
16 19.05 В 5 30 км 9/9 1500 м
[Cb cap Ac cuf Ci ing]
+21.6 +9.1 45 +23 +23 комфорт 1013.2 947.8
18 19.05 ЮВ 1 30 км 9/5 1500 м
[Sc diur, vesp Ac cuf Ci ing]
+21.4 +8.9 45 +23 +23 комфорт 1012.6 947.2 +24.8
19 19.05 В 3 30 км 9/1 1500 м
[Cu hum Ac cuf Ci ing]
+20.8 +9.8 49 +23 +23 комфорт 1012.8 947.3
20 19.05 В 2 30 км 8/3 1500 м
[Cu Sc Ac trans Ci sp]
+19.4 +9.5 53 +21 +21 комфорт 1013.5 947.7
21 19.05 ЮВ 2 30 км 8/3 1500 м
[Cu Sc Ac trans Ci sp]
+18.5 +10.4 59 +19 +19 тепло 1014.3 948.3 0.0
23 19.05 СВ 2 30 км 9/1 2000 м
[Cb cap Ac trans Ci sp]
+16.7 +10.4 66 +17 +17 тепло 1015.4 948.9
22 19.05 Ю 2 30 км 8/3 1500 м
[Cu Sc Ac trans Ci sp]
+17.1 +10.9 67 +17 +17 тепло 1014.9 948.5
00 20.05 СВ 5 30 км 9/3 1500 м
[Cu Sc Ac trans Ci sp]
+15.7 +9.1 65 +15 +15 тепло 1016.0 949.2
01 20.05 СВ 5 30 км н/о +14.4 +8.9 70 +13 +13 тепло 1016.0 948.9
02 20.05 С 2 30 км 8/3 1000 м
[Cu Sc Ac cuf Ci sp]
+13.9 +8.8 71 +13 +13 тепло 1016.1 948.8
03 20.05 С 1 30 км 8/6 1000 м
[Cu Sc Ac cuf Ci sp]
+13.8 +8.8 72 +14 +14 тепло 1016.0 948.7
05 20.05 С 2 30 км 10/6 1500 м
[Cu Sc Ac As Cs]
+13.0 +9.5 79 +12 +12 тепло 1016.1 948.6
04 20.05 З 2 30 км 8/6 1000 м
[Cu Sc Ac cuf Ci sp]
+13.5 +8.8 73 +13 +13 тепло 1015.8 948.5
06 20.05 С 3 30 км 8/5 1500 м
[Cu Sc Ac trans Cs]
+12.6 +9.3 80 +11 +12 по сезону 1016.4 948.8 +12.6
07 20.05 С 2 30 км 9/3 2000 м
[Sc Ac trans Cs]
+13.6 +9.5 76 +13 +14 прохладно 1016.1 948.8
08 20.05 С 2 30 км 8/1 2000 м
[Sc Ac trans Cs]
+16.6 +9.2 62 +17 +21 по сезону 1015.2 948.6
09 20.05 В 2 30 км 6/3 1500 м
[Cu hum Ac trans Cs]
+18.2 +8.5 53 +19 +25 тепло 1014.4 948.3
11 20.05 СВ 3 30 км 9/3 1500 м
[Cu Sc Ac trans Cs]
+17.5 +9.7 60 +17 +23 холодно 1014.3 948.0
10 20.05 ЮВ 2 30 км 6/4 1500 м
[Cu Sc Ac trans Cs]
+18.6 +8.3 51 +20 +28 прохладно 1014.0 948.0
12 20.05 В 1 30 км 9/3 1500 м
[Cu Sc Ac trans Cs]
+19.0 +8.4 50 +21 +30 комфорт 1013.2 947.3
13 20.05 В 2 30 км 6/5 1500 м
[Cu Sc Ac trans Ci sp]
+19.4 +8.9 51 +21 +30 комфорт 1012.3 946.6
14 20.05 СВ 2 30 км 6/4 1500 м
[Cu Sc Ac lent Ci sp]
+21.9 +8.5 42 +23 +31 комфорт 1010.7 945.5
15 20.05 СВ 3 25 км 5/4 1500 м
[Cu Sc Ac lent Ci sp]
+21.5 +8.4 43 +23 +29 комфорт 1010.0 944.8
17 20.05 С 2 30 км 8/3 1000 м
[Cu Sc Ac trans Ci sp]
+21.8 +7.9 41 +23 +25 комфорт 1009.2 944.1
16 20.05 В 1 30 км н/о +21.8 +7.9 41 +23 +23 комфорт 1009.6 944.5
18 20.05 С 3 30 км 8/3 1000 м
[Sc Ac trans Ci sp]
+20.7 +8.1 44 +22 +23 комфорт 1009.3 944.0 +22.2
19 20.05 С 2 30 км 8/3 1000 м
[Cu med, cong Ac trans Ci sp]
+19.9 +9.5 51 +22 +22 комфорт 1009.8 944.3
20 20.05 С 3 30 км 4/3 500 м
[Cb cap Ci sp]
+17.4 +9.7 61 +18 +18 по сезону 1010.8 944.7
21 20.05 В 3 30 км 5/0
[Cs]
+17.3 +9.8 61 +17 +17 по сезону 1011.4 945.3
23 20.05 С 2 30 км 5/0
[Cs]
+15.6 +9.9 69 +16 +16 тепло 1011.5 945.0
22 20.05 В 1 30 км 5/0
[Cs]
+16.7 +10.2 65 +18 +18 тепло 1011.7 945.4
00 21.05 СВ 1 30 км 4/0
[Ac und Cs]
+14.6 +11.9 84 +15 +15 по сезону 1012.1 945.4
01 21.05 СВ 2 30 км 5/0
[Ac und Cs]
+13.9 +11.1 83 +13 +13 тепло 1011.9 945.0
02 21.05 В 2 30 км 4/0
[Ac und Cs]
+13.6 +10.7 83 +13 +13 по сезону 1011.7 944.7
03 21.05 СВ 1 30 км 4/0
[Ac und Cs]
+12.3 +10.5 89 +12 +12 по сезону 1012.0 944.7
05 21.05 СВ 1 30 км 8/0 1500 м
[Ac und Cs]
+12.8 +9.8 82 +13 +13 тепло 1012.2 945.0
04 21.05 СВ 2 30 км 8/0 2000 м
[Ac und Cs]
+12.4 +9.9 85 +12 +12 тепло 1012.1 944.8
06 21.05 СВ 1 30 км 5/0 2000 м
[Ac und Ci fib]
+13.5 +10.7 83 +14 +15 тепло 1012.3 945.3 +12.2
07 21.05 В 2 30 км 6/0 1500 м
[Ac und Ci fib]
+15.2 +10.8 75 +15 +17 по сезону 1012.1 945.5
08 21.05 ЮВ 1 30 км 8/0 1500 м
[Ac und Ci fib]
+16.3 +10.7 69 +17 +21 по сезону 1011.9 945.5
09 21.05 Ю 2 30 км 8/1 1500 м
[Cu hum Ac und Ci fib]
+18.4 +10.8 61 +19 +25 тепло 1011.4 945.6 0.0
11 21.05 Ю 4 30 км 5/4 1000 м
[Cu Sc Ac und Ci fib]
+21.5 +10.3 49 +23 +30 комфорт 1010.0 944.8
10 21.05 Ю 3 24 км 4/3 1500 м
[Cu Sc Ac und Ci fib]
+19.3 +11.0 59 +21 +29 комфорт 1011.0 945.4
12 21.05 Ю 3 30 км 5/4 1000 м
[Cu Sc Ci fib]
+22.1 +8.2 41 +23 +34 комфорт 1009.3 944.3
13 21.05 ЮЗ 4 30 км 5/5 1000 м
[Cu Sc Ci fib]
+22.8 +9.3 42 +24 +31 комфорт 1008.6 943.8
14 21.05 ЮЗ 3 26 км 5/4
[Cb cap Ci sp]
+22.9 +7.7 38 +24 +33 комфорт 1008.2 943.4
15 21.05 ЮЗ 3 30 км 5/3
[Cb cap Ci fib]
+23.5 +7.3 35 +24 +31 комфорт 1007.5 942.9
17 21.05 ЮЗ 7 6000 м н/о +19.0 +11.0 60 +19 +19 холодно 1009.4 943.8
16 21.05 В 2 30 км 5/1 1500 м
[Cb cap Ac As]
+22.6 +7.2 37 +23 +29 комфорт 1007.5 942.7
18 21.05 СВ 3 30 км в посл. час ливневой дождь 9/5 1000 м
[Cu Sc Ac und]
+15.8 +12.5 81 +15 +16 холодно 1009.8 943.5 +34.9 15
19 21.05 СЗ 8 26 км 9/8 1000 м
[Cb cap Ac cuf]
+16.1 +11.0 72 +14 +14 прохладно 1010.6 944.3
20 21.05 ЮВ 6 30 км слабый ливневой дождь {гроза} 9/5 1350 м
[Cb cap Ac cuf Cc]
+15.1 +12.0 82 +14 +14 прохладно 1011.3 944.7
21 21.05 ЮВ 2 30 км 9/5 1500 м
[Cu med, cong Ac As]
+15.0 +13.0 88 +15 +15 прохладно 1012.6 945.9 3
23 21.05 В 1 30 км в посл. час ливневой дождь {морось} 9/6 1000 м
[Cu Sc Ac As]
+14.2 +12.6 90 +14 +14 по сезону 1013.3 946.4
22 21.05 ЮВ 4 8000 м дождь 9/6 1500 м
[Cu med, cong Ac As]
+14.5 +12.8 90 +13 +13 по сезону 1013.0 946.2
00 22.05 СЗ 3 25 км 8/5 1000 м
[Cu Sc Ac As]
+13.6 +12.9 96 +13 +13 по сезону 1013.2 946.2 2
01 22.05 С 1 20 км 5/3 1000 м
[Cu Sc Ac As Ci sp]
+13.7 +13.0 96 +14 +14 тепло 1013.3 946.3
02 22.05 СВ 1 20 км 5/3 1500 м
[Cu Sc Ac cuf Ci fib]
+12.8 +12.0 95 +13 +13 по сезону 1013.5 946.2
03 22.05 СВ 1 4500 м дымка 3/1 2000 м
[St Ac cuf Ci fib]
+12.3 +11.8 97 +12 +12 по сезону 1013.3 945.9 0.0
05 22.05 штиль 0 3600 м дымка 1/0
[Ac trans]
+11.1 +10.7 97 +10 +10 по сезону 1013.9 946.3
04 22.05 ЮВ 2 8000 м дымка 4/0
[Ac cuf Ci fib]
+12.2 +11.3 94 +11 +11 по сезону 1013.3 945.9
06 22.05 штиль 0 9000 м дымка 1/0
[Ac trans]
+12.1 +11.7 97 +11 +12 по сезону 1014.4 946.9 +11.1 0.0
07 22.05 ЮВ 2 10 км 1/1 600 м
[Cu hum As trans Ci fib]
+14.8 +12.9 88 +15 +18 по сезону 1014.1 947.3
08 22.05 В 2 23 км 1/1 1000 м
[Cu hum]
+16.5 +13.1 80 +17 +24 по сезону 1014.0 947.6
09 22.05 Ю 2 16 км 1/1 2000 м
[Cu hum As trans Ci fib]
+17.8 +13.7 77 +18 +28 тепло 1013.7 947.6 0.0
11 22.05 В 2 28 км 1/1 1500 м
[Cu hum Ac trans Ci fib]
+20.9 +12.8 60 +24 +42 комфорт 1012.8 947.4
10 22.05 ЮВ 2 30 км 1/1 2000 м
[Cu hum As trans Ci fib]
+19.6 +12.8 65 +22 +35 комфорт 1013.2 947.6
12 22.05 Ю 2 22 км 5/3 1000 м
[Cu hum Ac trans Ci fib]
+22.3 +12.3 53 +25 +37 комфорт 1012.2 947.1
13 22.05 ЮВ 2 30 км 8/3 1000 м
[Cu hum Ac trans Cc]
+22.8 +12.2 51 +25 +34 комфорт 1011.9 946.9
14 22.05 СЗ 7 30 км 8/3 1000 м
[Cu med, cong Ac trans Cc]
+20.8 +12.4 59 +23 +25 комфорт 1012.5 947.1
15 22.05 С 3 30 км 8/3 1000 м
[Cu med, cong Ac trans Cc]
+20.8 +11.9 57 +23 +28 комфорт 1012.3 946.9
17 22.05 С 2 30 км 9/3 1000 м
[Cu med, cong Ac As]
+21.0 +12.0 56 +24 +25 комфорт 1012.1 946.7
16 22.05 С 2 30 км 9/3 1000 м
[Cu med, cong Ac und Cc]
+20.6 +11.6 56 +23 +27 комфорт 1012.3 946.8
18 22.05 В 1 30 км 8/3 1000 м
[Cu med, cong Ac As Ci fib]
+20.8 +12.8 60 +24 +25 комфорт 1012.2 946.8 +23.0
19 22.05 СВ 1 30 км 9/0
[Ac As Ci sp]
+19.7 +14.1 70 +23 +23 комфорт 1012.7 947.1
20 22.05 СВ 1 30 км 10/0
[Ac As Ci sp]
+18.4 +13.6 74 +21 +21 комфорт 1013.3 947.4
21 22.05 В 1 30 км 9/0
[Ac As Ci sp]
+18.3 +13.5 74 +20 +20 тепло 1014.2 948.2
23 22.05 С 1 25 км 5/0
[Ac As]
+15.8 +13.4 86 +16 +16 тепло 1015.2 948.6
22 22.05 В 2 30 км 8/0
[Ac As Ci fib]
+17.5 +13.7 78 +18 +18 тепло 1014.7 948.5
00 23.05 С 3 25 км 9/0
[Ac As]
+16.3 +13.6 84 +16 +16 тепло 1015.3 948.8
01 23.05 СЗ 3 25 км 9/1 2000 м
[Sc Ac As Ci fib]
+16.1 +13.4 84 +16 +16 тепло 1015.3 948.7
02 23.05 СЗ 3 30 км 5/0
[Ac As]
+15.2 +12.9 86 +15 +15 тепло 1015.3 948.5
03 23.05 С 1 30 км 1/0
[Ac As]
+14.0 +12.4 90 +14 +14 по сезону 1015.7 948.6
05 23.05 С 2 30 км 3/0
[Ac und Ci]
+12.9 +11.5 91 +12 +12 тепло 1016.2 948.8
04 23.05 С 2 30 км 3/0
[Cs]
+13.4 +12.0 91 +13 +13 тепло 1015.9 948.6
06 23.05 С 1 30 км 1/1 2000 м
[Sc Ac und Ci fib]
+13.6 +12.2 91 +14 +15 тепло 1016.6 949.3 +12.9
07 23.05 З 1 25 км 1/0
[Ci sp]
+16.1 +11.7 75 +17 +20 по сезону 1016.4 949.7
08 23.05 С 1 30 км 3/0
[Ci sp]
+18.4 +12.5 68 +20 +27 тепло 1015.6 949.5
09 23.05 Ю 1 25 км 5/0
[Ci sp]
+20.8 +12.7 60 +24 +36 комфорт 1015.0 949.4
11 23.05 ЮВ 2 н/о 10/1
[Cu hum Ac As Cs]
+24.3 +11.5 45 +26 +34 жарко 1014.0 949.2
10 23.05 Ю 2 25 км 10/0
[Cs]
+22.2 +12.8 55 +25 +37 комфорт 1014.7 949.4
12 23.05 Ю 3 20 км 10/3 1500 м
[Cu hum Ac As Cs]
+25.1 +11.7 43 +27 +32 жарко 1013.1 948.6
13 23.05 Ю 3 22 км 9/3 1500 м
[Cu hum Ac As Cs]
+26.1 +10.9 39 +27 +34 жарко 1012.2 947.9
14 23.05 Ю 3 30 км 10/4 2000 м
[Cu hum Ac As Cs]
+26.0 +9.8 36 +27 +31 жарко 1011.7 947.4
15 23.05 Ю 5 30 км 10/5
[Cu Sc Ac As Cs]
+26.2 +8.7 33 +26 +28 жарко 1011.2 947.0
17 23.05 Ю 4 30 км 9/3
[Cu hum As trans Cs]
+25.9 +9.9 36 +27 +28 жарко 1010.3 946.1
16 23.05 Ю 3 30 км 9/3 2000 м
[Cu hum As trans Cs]
+26.8 +9.6 34 +27 +30 жарко 1010.8 946.7
18 23.05 Ю 6 18 км слабый ливневой дождь, в посл. час гроза 10/5 1200 м
[Cb cap Ac cuf Cs]
+24.5 +10.1 40 +25 +26 комфорт 1011.3 946.7 +27.2
19 23.05 С 3 20 км слабый дождь {гроза} 10/4 1200 м
[Cb cap Ac cuf Cs]
+17.7 +14.5 82 +18 +18 по сезону 1014.1 948.0
20 23.05 С 3 30 км 10/1 2000 м
[Cu med, cong Ac cuf Ci sp]
+17.8 +14.4 80 +18 +18 по сезону 1013.5 947.5
21 23.05 С 2 30 км 9/1 2000 м
[Cu hum Ac cuf Ci sp]
+17.4 +13.9 80 +18 +18 по сезону 1014.5 948.3 0.8

 

Местоположение метеостанции Madrid (Испания): широта 40.45 долгота -3.55 высота над уровнем моря 582 м.

В архиве по умолчанию представлена погода в Madrid за последнюю неделю. Архивные данные за месяц целиком и за предыдущие месяцы, начиная с января 2011 года, Вы можете получить, выбрав интересующий диапазон дат из раскрывающегося списка и нажав кнопку "Ввод!".


*Определитесь, кто Вы:
робот инопланетянин человек

Внимание! Время в таблицах - всемирное. Для получения местного времени необходимо прибавить поправку, которая в Madrid равна 1 ч.

Смотрите также архив погоды в соседних городах и на ближайших метеорологических станциях:

Погода в Madrid Retiro (Испания) (12 км)
Погода в Madrid Universitaria (Испания) (14 км)
Погода в Madrid Airport (Испания) (22 км)
Погода в Madri-Colmenar (Испания) (33 км)
Погода в Guadalajara (Испания) (39 км)
Погода в Navacerrada (Испания) (54 км)
Погода в Segovia (Испания) (74 км)
Погода в Toledo (Испания) (76 км)
Погода в Avila (Испания) (100 км)
Погода в Cuenca (Испания) (128 км)

Пояснения к столбцам:

Ветер - указаны скорость ветра в м/с - средняя за 10 мин, порывы в срок и между сроками (в фигурных скобках) и направление, откуда дует ветер: С - северный, СВ - северо-восточный, В - восточный, ЮВ - юго-восточный, Ю - южный, ЮЗ - юго-западный, З - западный, СЗ - северо-западный.
Видимость - горизонтальная дальность видимости в метрах или километрах. При видимости от 1 до 10 км при отсутствии осадков обычно наблюдается дымка, при ухудшении видимости до 1 км и менее - туман. В сухую погоду видимость может ухудшаться дымом, пылью или мглою.
Явления - указаны атмосферные явления, наблюдавшиеся в срок или в последний час перед сроком; фигурными скобками обозначены явления, наблюдавшиеся между сроками (за 1-3 часа до срока); квадратными скобками обозначены град или гололедные отложения с указанием их диаметра в мм.
Облачность - указаны через наклонную черту общая и нижняя облачность в баллах и высота нижней границы облаков в метрах; квадратными скобками обозначены формы облаков: Ci - перистые, Cs - перисто-слоистые, Cc - перисто-кучевые, Ac - высококучевые, As - высокослоистые, Sc - слоисто-кучевые, Ns - слоисто-дождевые, Cu - кучевые, Cb - кучево-дождевые. Подробнее классификацию облаков см. в Атласе облаков (PDF).
T - Температура воздуха - температура, измеренная на высоте 2 м над землей.
Td - Температура точки росы - температура, при понижении до которой содержащийся в воздухе водяной пар достигнет насыщения.
f - Относительная влажность воздуха - влажноcть воздуха, измеренная на высоте 2 м над землей.
Te - Эффективная температура - температура, которую ощущает одетый по сезону человек в тени. Характеристика душности погоды. При расчете учитывается влияние влажности воздуха и скорости ветра на теплоощущения человека.
Tes - Эффективная температура на солнце - температура, которую ощущает человек, с поправкой на солнечный нагрев. Характеристика знойности погоды. Зависит от высоты солнца над горизонтом, облачности и скорости ветра. Ночью, в пасмурную погоду, а также при ветре 12 м/с и более поправка равна нулю.
P - Атмосферное давление - приведенное к уровню моря атмосферное давление.
Po - Атмосферное давление - измеренное на уровне метеостанции атмосферное давление.
Tmin - Минимальная температура - минимум температуры воздуха на высоте 2 м над землей.
Tmax - Максимальная температура - максимум температуры воздуха на высоте 2 м над землей.
R - Количество осадков - Количество выпавших осадков за период времени, мм. При наведении курсора мыши на число - период времени, за который выпало указанное количество осадков.
R24 - Количество осадков - Количество выпавших осадков за 24 часа, мм.
S - Снежный покров - Высота снежного покрова, см. При наведении курсора мыши на число - состояние снежного покрова и степень покрытия местности в баллах.